Theta_e
317 321 326 328 328 328 329 330 331 333 335 337 338 340 342 344 345 347 348 349 350 350 348 348 351 351 352 353 350 350 350 350 347 347 349 348 344 344 348 350 348 346 352
317 319 324 324 325 325 326 326 327 328 329 331 333 335 336 339 343 344 344 346 350 349 349 350 349 352 352 352 349 348 348 349 347 347 348 348 348 345 348 350 348 348 351
314 316 317 322 323 323 323 324 324 325 326 327 328 329 331 332 334 338 341 342 346 349 349 349 350 350 352 351 349 347 348 348 347 347 346 340 338 346 348 349 349 352 350
312 313 314 319 320 321 321 321 322 322 323 323 325 325 326 327 328 331 335 339 341 345 348 347 348 349 350 350 349 348 349 347 346 345 343 341 335 347 348 347 346 350 351
310 311 312 316 318 318 319 319 319 319 320 320 321 321 322 322 324 325 327 331 335 338 342 347 347 348 349 349 349 349 348 345 344 342 341 338 337 342 348 347 348 349 348
307 308 311 314 316 316 316 316 316 316 317 317 317 317 318 318 318 320 321 324 328 332 335 339 341 345 346 347 347 348 348 345 343 340 338 339 339 347 346 349 349 348 346
302 304 305 310 311 313 313 313 313 313 314 314 314 314 315 315 315 316 317 318 321 325 329 332 335 337 341 344 346 346 345 343 341 339 337 337 333 349 346 349 349 349 348
300 301 302 305 306 308 308 309 310 310 311 311 311 312 312 312 312 314 314 315 317 319 321 325 327 330 334 339 342 343 341 337 338 338 336 336 337 349 349 348 349 349 348
300 301 300 300 302 306 306 305 306 307 307 308 308 309 309 309 310 311 311 312 314 316 317 319 320 323 329 334 337 338 336 334 338 338 338 336 339 350 349 349 348 349 349
299 299 299 299 299 299 300 303 303 304 305 306 306 306 306 307 307 307 307 308 311 313 314 315 317 318 321 324 328 332 332 331 335 338 338 337 341 348 349 348 348 348 349
299 298 297 297 298 298 297 300 303 303 304 304 304 305 303 302 302 303 306 308 310 310 311 313 314 316 319 320 323 325 328 335 337 338 339 336 342 347 347 346 347 347 348
296 296 296 296 296 297 298 298 297 299 298 299 299 298 300 300 301 304 305 308 308 308 310 312 313 316 316 315 322 326 330 334 337 338 339 336 342 346 347 346 345 347 347
297 297 296 295 295 295 296 295 296 296 296 297 297 298 298 298 299 299 300 301 301 305 303 305 306 307 309 311 312 315 325 332 336 338 337 334 341 345 346 346 345 345 346
297 296 295 294 294 294 294 294 294 294 294 295 295 297 296 295 296 297 298 299 300 302 301 302 303 305 306 308 310 311 315 321 329 335 335 328 335 343 346 346 345 345 345
296 295 294 294 293 293 293 293 293 293 293 294 294 296 296 294 294 296 297 298 299 300 300 300 301 302 303 305 307 309 311 314 319 326 333 325 328 338 344 345 345 344 345
298 295 294 294 293 292 291 291 291 292 292 293 294 295 295 295 294 294 295 296 297 299 299 299 299 300 301 303 304 306 308 311 315 320 323 329 326 331 339 343 345 346 346
296 296 293 293 293 291 291 291 291 291 292 292 293 294 295 296 293 293 294 295 296 298 298 298 299 300 300 302 302 304 306 308 311 316 320 323 328 325 330 339 342 343 345
295 293 293 294 292 291 291 290 291 291 290 291 292 293 294 295 294 293 293 293 295 296 297 297 298 298 299 300 301 302 304 306 309 315 321 322 325 330 328 330 336 340 342
293 292 291 291 290 290 290 290 290 290 290 290 290 291 292 293 294 292 292 293 295 296 296 297 296 296 296 298 300 301 302 303 306 310 315 315 317 321 325 328 327 330 336
291 290 290 290 289 289 289 289 289 289 290 289 289 290 292 291 292 292 292 293 295 294 294 296 297 298 297 296 298 299 300 302 304 306 309 311 311 313 316 321 328 326 325
288 288 288 287 287 287 285 284 285 285 286 287 288 290 290 291 292 291 291 292 292 292 292 294 296 295 295 296 295 296 298 301 302 305 306 307 306 307 306 311 319 327 327
287 287 286 287 286 286 286 285 284 284 285 286 287 289 290 290 291 290 290 290 290 290 290 292 294 293 294 295 293 294 292 295 299 304 305 303 305 303 302 303 305 312 324
285 285 286 285 285 285 285 285 285 285 285 285 286 286 288 289 289 290 289 288 289 289 290 292 294 293 291 294 295 295 291 292 296 302 304 300 298 296 296 295 297 299 301
284 284 284 285 284 285 284 283 282 281 281 283 284 285 286 288 288 289 288 288 289 290 290 291 293 292 292 290 294 296 296 296 292 292 296 295 292 292 289 291 291 292 293
283 283 283 283 283 284 283 283 281 281 282 283 283 283 284 285 287 287 287 286 287 287 287 288 289 290 290 290 290 292 293 293 295 294 292 295 290 289 289 289 288 289 289
283 282 282 282 282 283 282 281 281 280 280 280 281 281 282 283 284 285 286 286 286 286 287 287 288 289 288 289 290 291 291 291 291 293 293 295 295 290 286 287 287 288 289
Wind_Speed
11 8 11 12 13 14 15 16 17 16 16 18 18 16 16 13 14 15 13 10 11 9 9 8 9 9 9 10 10 7 1 3 3 3 2 4 4 3 5 5 7 6 10
12 8 10 11 13 14 15 16 16 16 16 15 16 15 15 17 16 13 13 15 14 5 11 10 10 9 9 9 10 9 7 4 3 3 2 2 1 3 7 7 9 7 11
11 10 8 11 13 14 15 15 16 16 16 16 14 15 15 16 15 15 14 13 15 12 7 10 9 9 7 8 8 9 8 8 6 5 5 4 5 4 7 7 5 11 12
10 10 7 10 12 13 14 15 15 15 15 16 16 15 15 14 15 15 15 14 16 15 12 7 9 8 7 8 7 8 8 9 8 6 4 6 7 10 8 8 5 9 10
10 10 7 10 11 13 14 14 14 14 14 15 15 15 14 14 13 14 15 14 14 14 15 13 9 9 6 7 8 8 9 11 10 7 6 7 5 11 11 9 7 7 7
10 10 8 10 11 12 13 13 13 13 13 13 13 13 13 13 13 14 13 14 13 14 14 14 14 13 8 7 6 8 10 10 10 7 6 10 9 15 15 12 9 8 8
8 9 7 10 11 12 12 13 12 12 12 12 12 12 13 13 12 13 13 13 14 13 13 14 13 14 13 10 7 7 9 10 7 7 8 10 7 16 16 14 12 10 10
8 7 7 9 10 11 12 12 12 12 12 12 12 13 14 12 12 13 14 12 13 14 13 12 13 12 14 13 10 9 7 9 8 8 9 9 9 16 16 15 14 12 11
8 7 5 6 6 8 9 11 11 11 11 11 12 13 14 12 12 11 13 13 15 15 14 14 13 12 11 12 12 10 8 8 8 8 10 6 8 18 16 15 15 15 12
6 6 6 5 5 4 6 9 7 9 10 10 11 13 13 12 13 13 12 12 14 14 14 14 14 13 13 12 13 11 10 9 7 9 9 8 8 16 17 16 16 16 15
6 5 5 4 5 3 3 4 4 7 8 9 9 13 8 4 6 7 10 12 14 12 15 15 14 13 13 13 14 14 12 5 5 6 7 10 11 15 18 17 17 17 17
8 7 5 5 4 2 3 4 3 4 4 4 4 5 4 6 5 7 7 12 13 14 14 13 14 14 11 4 4 7 4 6 6 6 7 13 14 16 18 17 18 18 19
8 6 7 5 4 4 3 2 2 2 3 3 6 5 4 5 4 4 3 4 4 7 4 6 7 4 7 5 5 6 6 5 4 5 9 14 17 20 20 18 18 19 20
8 9 8 5 4 4 2 3 2 3 2 3 4 5 4 3 5 4 3 4 4 3 5 5 3 5 6 7 7 7 7 6 4 5 7 13 15 21 23 22 20 21 21
8 8 8 6 4 3 2 3 3 3 3 4 4 5 4 4 4 4 4 4 4 4 4 4 4 5 6 7 7 7 6 7 8 5 6 13 15 18 22 25 25 24 24
8 8 8 6 4 3 2 3 2 3 3 3 3 4 5 4 4 4 5 5 5 4 4 4 5 6 6 5 7 7 8 7 7 7 6 8 13 18 23 25 26 26 27
7 9 8 7 4 3 3 3 2 2 3 3 4 5 5 4 5 5 4 4 4 4 6 5 5 5 5 6 7 7 6 8 8 8 7 7 9 14 19 25 28 28 28
9 9 7 5 5 2 3 3 3 3 3 3 3 4 5 5 5 5 4 5 5 5 4 4 4 6 7 7 7 6 7 6 7 7 4 5 6 6 11 24 27 28 28
9 8 7 6 4 3 2 2 3 4 3 3 3 3 5 5 6 5 4 5 6 5 5 5 3 4 7 7 10 10 7 6 6 8 8 5 8 8 8 14 25 26 26
9 8 7 4 3 2 2 3 3 3 3 3 4 3 5 4 6 5 4 5 5 4 6 6 7 5 9 8 10 10 10 10 9 9 6 5 5 7 7 9 8 13 20
8 6 4 3 3 2 2 2 2 2 3 3 3 5 4 4 4 4 4 4 5 6 8 9 9 11 9 9 9 8 7 9 11 11 9 8 7 7 5 5 7 6 8
5 4 4 2 2 2 1 1 2 2 3 3 4 5 5 3 3 5 4 4 5 6 7 8 9 7 7 8 8 10 7 5 5 9 8 3 7 6 6 6 6 7 7
4 5 4 4 3 3 3 3 3 3 3 3 2 3 4 5 5 5 5 4 6 7 7 8 7 8 8 6 9 6 6 4 12 4 3 1 3 3 3 5 7 7 8
2 5 3 2 2 4 4 4 5 3 4 3 3 3 4 5 5 5 5 5 6 6 7 6 8 5 7 9 7 8 10 10 8 10 3 3 4 5 3 3 4 4 5
4 2 2 0 2 2 3 4 4 5 4 4 4 6 5 5 5 5 5 5 7 6 6 8 10 8 6 8 8 7 8 9 11 10 14 7 2 3 3 3 2 3 2
4 3 3 1 3 3 3 4 5 5 5 4 5 5 4 3 4 5 7 7 8 7 7 7 9 8 9 9 8 9 8 7 8 8 10 11 9 4 3 3 3 2 3
Wind_Direction
98 87 75 70 64 60 56 57 57 50 49 48 43 37 26 23 33 29 11 3 339 240 238 231 238 231 236 234 236 243 195 77 60 81 79 121 139 168 181 171 177 162 138
98 89 78 75 68 61 57 51 50 49 44 47 46 40 29 24 23 18 15 12 6 307 230 236 237 238 237 239 234 233 213 164 175 180 201 154 182 209 188 187 212 147 145
124 111 74 73 69 61 56 52 48 45 41 41 34 31 28 26 20 16 13 8 7 10 283 251 242 247 236 250 242 228 216 178 189 196 196 223 187 207 197 207 228 172 157
115 87 70 69 68 62 57 51 46 42 37 34 31 28 24 17 16 13 13 10 11 8 7 301 265 253 254 249 251 235 206 183 187 190 212 247 214 174 205 218 221 182 163
101 97 79 74 71 63 57 52 49 41 36 32 28 23 18 13 12 11 10 11 4 5 5 6 336 293 281 268 257 234 225 211 186 197 225 249 244 172 191 211 205 194 179
106 102 78 75 71 63 57 52 48 41 37 31 25 19 14 7 6 4 7 360 8 359 359 359 355 357 342 307 285 251 219 225 188 201 223 252 254 168 185 196 214 207 201
121 119 87 78 72 66 58 53 48 42 36 29 25 17 10 3 3 360 359 360 1 358 352 351 347 344 344 341 306 262 238 220 209 203 220 239 234 166 183 194 203 220 200
117 118 116 90 73 65 55 46 42 37 32 26 19 12 6 2 1 357 357 352 354 348 345 345 341 335 333 333 325 309 248 218 214 220 228 235 212 174 186 193 199 219 212
128 127 108 93 120 105 74 45 39 33 27 24 19 12 2 359 4 0 354 355 345 341 335 333 331 331 326 316 321 313 299 240 215 218 235 245 214 183 192 197 205 209 213
127 122 127 118 82 52 113 60 46 35 28 21 15 13 5 4 355 358 355 342 340 333 329 321 317 316 317 310 301 299 294 271 235 224 226 240 233 193 195 198 208 212 213
141 131 111 98 89 61 118 74 40 35 28 25 12 6 1 344 341 343 333 339 335 334 329 321 314 311 306 291 272 258 250 248 222 228 229 231 236 214 203 202 212 216 213
166 154 134 105 84 58 53 36 29 25 24 8 23 9 350 326 329 347 336 332 345 335 331 334 333 325 297 286 320 310 247 232 231 226 226 228 232 229 210 207 213 224 219
174 150 133 115 104 55 80 342 31 10 24 343 17 344 347 340 335 330 334 330 331 320 338 332 315 323 323 325 318 310 306 301 250 238 232 226 228 228 221 214 216 223 225
163 139 126 114 124 94 9 64 36 28 4 18 333 349 349 347 332 330 322 322 313 311 319 309 309 314 311 307 298 298 301 304 293 281 251 240 229 231 224 219 219 225 228
143 130 132 133 113 75 50 39 23 13 13 349 343 340 3 335 323 319 312 309 312 311 303 321 324 322 314 309 303 294 285 285 290 285 289 257 239 230 232 223 222 224 227
143 135 121 118 86 82 45 59 354 349 347 333 326 328 332 326 323 321 330 313 308 309 323 328 310 295 284 286 286 281 280 272 273 270 276 281 256 234 230 230 231 229 226
142 122 123 123 105 42 4 37 340 310 346 319 319 316 320 326 327 319 315 310 307 318 329 322 302 295 293 290 289 283 269 262 261 259 258 263 271 244 237 235 235 234 233
120 114 117 111 113 55 23 354 323 331 324 303 313 315 325 322 326 324 317 319 317 324 316 308 308 334 325 316 304 293 290 279 268 271 256 296 295 289 247 238 236 235 234
110 120 120 129 133 91 344 320 298 291 291 289 300 328 326 338 338 321 315 307 311 313 306 300 342 312 306 309 310 308 298 284 275 267 246 246 273 282 283 257 234 231 235
95 104 120 118 101 73 308 287 292 306 325 347 333 319 355 335 309 307 319 304 299 329 312 306 290 298 303 299 298 293 286 279 275 274 262 248 244 266 278 283 275 236 233
97 107 129 136 107 69 15 334 342 331 321 326 339 331 305 276 304 314 291 311 343 346 334 325 316 305 302 309 306 295 280 273 255 247 250 240 242 251 255 267 276 251 238
127 120 134 169 82 54 13 360 276 298 283 279 261 254 258 294 354 313 333 315 327 318 304 301 303 300 296 301 300 304 302 317 265 237 228 210 271 291 302 303 303 307 253
144 163 106 55 28 357 343 334 304 306 304 315 335 356 345 339 323 304 309 318 305 293 292 298 295 306 298 289 285 287 303 287 346 340 313 327 283 278 302 320 315 325 329
107 77 102 73 359 309 1 326 325 306 300 302 328 322 323 311 320 328 343 327 307 302 289 295 296 318 317 306 301 279 288 296 299 295 264 263 240 250 237 266 287 306 322
65 57 1 152 259 312 343 324 316 313 318 331 326 326 327 321 341 344 331 319 301 297 310 311 299 300 289 296 298 301 296 298 297 287 290 280 292 256 244 240 243 278 284
189 203 233 2 323 359 338 315 310 311 323 323 326 315 296 321 337 334 317 317 309 300 296 298 291 288 290 280 284 283 282 286 294 306 305 311 303 286 273 248 243 258 279